Location: Sternwarte auf dem Internationalen Platz Vogelsang IP
(50.5721°N, 6.4398°E)
Time: 21:55:53
(UTC+01:00)

Vanguard 2 Rocket - All Passes

Search period start: 10 December 2025 00:00
Search period end: 20 December 2025 00:00
Orbit: 553 x 3287 km, 32.9° (Epoch: 09 December)

Date Brightness Start Highest point End Pass type
(mag) Time Alt. Az. Time Alt. Az. Time Alt. Az.
10 Dec - 08:09:30 10° S 08:20:30 19° SSE 08:29:33 10° ESE daylight
10 Dec - 10:20:43 10° SW 10:34:28 30° S 10:43:58 10° ESE daylight
10 Dec - 12:36:12 10° WSW 12:47:47 30° S 12:55:18 10° SE daylight
10 Dec - 14:53:47 10° WSW 14:59:30 16° SW 15:03:52 10° S daylight
11 Dec - 07:06:38 10° SSE 07:14:45 14° SE 07:22:01 10° ESE visible
11 Dec - 09:14:32 10° SSW 09:28:42 28° SSE 09:39:09 10° ESE daylight
11 Dec - 11:28:58 10° WSW 11:42:34 34° S 11:51:28 10° ESE daylight
11 Dec - 13:45:50 10° WSW 13:55:07 24° SSW 14:01:27 10° SSE daylight
12 Dec - 08:09:09 10° SSW 08:22:45 25° SSE 08:33:40 10° ESE daylight
12 Dec - 10:21:58 10° SW 10:36:57 34° S 10:47:14 10° ESE daylight
12 Dec - 12:38:11 10° WSW 12:50:18 31° SSW 12:58:15 10° SE daylight
12 Dec - 14:56:55 10° WSW 15:01:50 14° SW 15:05:47 10° SSW daylight
13 Dec - 07:04:56 10° S 07:16:48 20° SE 07:27:10 10° ESE visible
13 Dec - 09:15:25 10° SW 09:31:01 33° SSE 09:42:30 10° ESE daylight
13 Dec - 11:30:42 10° WSW 11:45:02 35° S 11:54:29 10° SE daylight
13 Dec - 13:48:15 10° WSW 13:57:29 22° SSW 14:03:59 10° SSE daylight
14 Dec - 06:02:48 10° SSE 06:10:58 14° SE 06:18:42 10° ESE visible
14 Dec - 08:09:35 10° SSW 08:24:55 30° SSE 08:37:11 10° ESE daylight
14 Dec - 10:23:27 10° WSW 10:39:20 37° S 10:50:16 10° ESE daylight
14 Dec - 12:40:17 10° WSW 12:52:42 30° SSW 13:00:58 10° SSE daylight
14 Dec - 15:00:50 10° WSW 15:03:59 11° SW 15:06:45 10° SSW daylight
15 Dec - 07:04:39 10° SSW 07:18:46 25° SSE 07:31:07 10° ESE visible
15 Dec - 09:16:40 10° SW 09:33:17 37° S 09:45:35 10° ESE daylight
15 Dec - 11:32:34 10° WSW 11:47:24 36° SSW 11:57:19 10° SE daylight
15 Dec - 13:50:52 10° WSW 13:59:41 20° SW 14:06:08 10° S daylight
16 Dec - 06:01:04 10° S 06:12:46 19° SE 06:23:50 10° ESE visible
16 Dec - 08:10:30 10° SW 08:27:01 35° SSE 08:40:22 10° ESE daylight
16 Dec - 10:25:09 10° WSW 10:41:39 39° S 10:53:10 10° ESE daylight
16 Dec - 12:42:29 10° WSW 12:54:55 28° SSW 13:03:28 10° SSE daylight
17 Dec - 05:00:06 10° SSE 05:07:03 13° SE 05:14:00 10° ESE visible
17 Dec - 07:05:09 10° SSW 07:20:42 30° SSE 07:34:29 10° ESE visible
17 Dec - 09:18:11 10° SW 09:35:29 40° S 09:48:30 10° ESE daylight
17 Dec - 11:34:33 10° WSW 11:49:38 35° SSW 11:59:58 10° SE daylight
17 Dec - 13:53:48 10° WSW 14:01:43 17° SW 14:07:50 10° S daylight
18 Dec - 06:00:51 10° S 06:14:31 24° SE 06:27:42 10° E visible
18 Dec - 08:11:49 10° SW 08:29:03 39° SSE 08:43:18 10° ESE daylight
18 Dec - 10:27:00 10° WSW 10:43:51 40° S 10:55:52 10° SE daylight
18 Dec - 12:44:51 10° W 12:57:00 25° SSW 13:05:39 10° SSE daylight
19 Dec - 04:58:03 10° S 05:08:39 18° SE 05:19:27 10° ESE visible
19 Dec - 07:06:11 10° SSW 07:22:34 35° SSE 07:37:30 10° ESE visible
19 Dec - 09:19:55 10° WSW 09:37:36 42° S 09:51:14 10° ESE daylight
19 Dec - 11:36:40 10° WSW 11:51:44 33° SSW 12:02:23 10° SSE daylight
19 Dec - 13:57:21 10° WSW 14:03:34 14° SW 14:08:43 10° SSW daylight
